Location: Unspecified
(43.8044°N, 11.0278°E)
Time: 12:01:11
(UTC+02:00)

Resurs 1-4 Rocket - Visible Passes

Search period start: 29 April 2016 00:00
Search period end: 09 May 2016 00:00
Orbit: 799 x 815 km, 98.4° (Epoch: 27 April)

Date Brightness Start Highest point End Pass type
(mag) Time Alt. Az. Time Alt. Az. Time Alt. Az.
29 Apr 2.6 03:56:54 10° NNE 04:02:06 56° E 04:05:32 21° S visible
29 Apr 3.5 05:37:38 10° NNW 05:41:31 21° WNW 05:45:25 10° WSW visible
30 Apr 3.4 03:32:40 10° NNE 03:37:26 34° E 03:40:48 17° SSE visible
30 Apr 3.0 05:12:33 10° N 05:17:14 33° WNW 05:21:53 10° SW visible
01 May 4.1 03:08:46 10° NE 03:12:42 21° E 03:16:03 12° SE visible
01 May 2.3 04:47:44 10° N 04:52:51 53° WNW 04:57:08 15° SW visible
02 May 4.6 02:45:45 10° ENE 02:47:52 12° E 02:49:59 10° ESE visible
02 May 2.1 04:23:04 10° NNE 04:28:23 86° WNW 04:32:23 18° SSW visible
03 May 2.5 03:58:36 10° NNE 04:03:50 58° E 04:07:38 18° S visible
04 May 3.4 03:34:21 10° NNE 03:39:12 35° E 03:42:54 16° SSE visible
04 May 3.0 05:14:19 10° N 05:18:57 32° WNW 05:23:35 10° SW visible
05 May 4.1 03:10:25 10° NE 03:14:28 22° E 03:18:08 11° SE visible
05 May 2.4 04:49:28 10° N 04:54:35 51° WNW 04:59:13 12° SW visible
06 May 4.6 02:47:14 10° ENE 02:49:38 13° E 02:52:00 10° ESE visible
06 May 2.1 04:24:48 10° NNE 04:30:06 83° WNW 04:34:28 16° SSW visible
07 May 2.5 04:00:19 10° NNE 04:05:34 61° E 04:09:42 16° S visible
08 May 3.3 03:36:02 10° NNE 03:40:56 37° E 03:44:56 14° SSE visible
08 May 3.1 05:16:05 10° N 05:20:39 31° WNW 05:25:14 10° SW visible
